| time (UTC) | temp C | wind direction | speed KPH | gust KPH | rain 1hr cm | rain 24hr cm | rain mn cm | humidity % | barometer mb |
| 20260504130548 | 8 | 338 | 12.9 | 17.7 | 0.00 | 0.00 | 0.00 | 69 | 1009.0 |
| 20260504110548 | 8 | 325 | 8.0 | 14.5 | 0.00 | 0.00 | 0.00 | 70 | 1006.0 |
| 20260504100545 | 7 | 0 | 0.0 | 1.6 | 0.00 | 0.00 | 0.00 | 82 | 1004.9 |
| 20260504081549 | 8 | 202 | 6.4 | 9.7 | 0.00 | 0.00 | 0.00 | 82 | 1004.5 |
| 20260504081047 | 8 | 214 | 3.2 | 9.7 | 0.00 | 0.00 | 0.00 | 82 | 1004.5 |
| 20260504080547 | 8 | 201 | 3.2 | 9.7 | 0.00 | 0.00 | 0.00 | 81 | 1004.6 |
| 20260504050548 | 12 | 205 | 9.7 | 17.7 | 0.00 | 0.00 | 0.00 | 70 | 1006.0 |
| 20260504045548 | 12 | 198 | 6.4 | 12.9 | 0.00 | 0.00 | 0.00 | 71 | 1006.2 |
| 20260504045048 | 12 | 208 | 3.2 | 12.9 | 0.00 | 0.00 | 0.00 | 70 | 1006.2 |
| 20260504044555 | 12 | 230 | 4.8 | 12.9 | 0.00 | 0.00 | 0.00 | 70 | 1006.2 |
| 20260504044049 | 12 | 200 | 6.4 | 12.9 | 0.00 | 0.00 | 0.00 | 70 | 1006.2 |
| 20260504043548 | 12 | 222 | 4.8 | 14.5 | 0.00 | 0.00 | 0.00 | 69 | 1006.1 |
| 20260504043059 | 12 | 211 | 8.0 | 14.5 | 0.00 | 0.00 | 0.00 | 69 | 1006.1 |
| 20260504042548 | 12 | 198 | 8.0 | 14.5 | 0.00 | 0.00 | 0.00 | 68 | 1006.1 |
| 20260504042049 | 12 | 210 | 6.4 | 9.7 | 0.00 | 0.00 | 0.00 | 68 | 1006.1 |
| 20260504041555 | 12 | 192 | 4.8 | 8.0 | 0.00 | 0.00 | 0.00 | 68 | 1006.2 |
| 20260504041048 | 12 | 216 | 3.2 | 11.3 | 0.00 | 0.00 | 0.00 | 65 | 1006.3 |
| 20260504040547 | 13 | 232 | 4.8 | 14.5 | 0.00 | 0.00 | 0.00 | 65 | 1006.5 |
| 20260504040123 | 13 | 220 | 4.8 | 14.5 | 0.00 | 0.00 | 0.00 | 64 | 1006.4 |
| 20260504035548 | 13 | 200 | 6.4 | 11.3 | 0.00 | 0.00 | 0.00 | 64 | 1006.5 |
| 20260504035047 | 13 | 219 | 6.4 | 11.3 | 0.00 | 0.00 | 0.00 | 63 | 1006.5 |
| 20260504034600 | 13 | 217 | 4.8 | 11.3 | 0.00 | 0.00 | 0.00 | 63 | 1006.5 |
| 20260504034048 | 13 | 207 | 4.8 | 11.3 | 0.00 | 0.00 | 0.00 | 63 | 1006.4 |
| 20260504033548 | 13 | 204 | 6.4 | 12.9 | 0.00 | 0.00 | 0.00 | 62 | 1006.4 |
| 20260504033056 | 13 | 213 | 8.0 | 12.9 | 0.00 | 0.00 | 0.00 | 62 | 1006.5 |
| 20260504032548 | 13 | 225 | 6.4 | 14.5 | 0.00 | 0.00 | 0.00 | 61 | 1006.5 |
| 20260504032048 | 13 | 211 | 6.4 | 16.1 | 0.00 | 0.00 | 0.00 | 61 | 1006.5 |
| 20260504031625 | 14 | 211 | 6.4 | 16.1 | 0.00 | 0.00 | 0.00 | 61 | 1006.5 |
| 20260504031051 | 14 | 215 | 9.7 | 16.1 | 0.00 | 0.00 | 0.00 | 60 | 1006.5 |
| 20260504030547 | 14 | 197 | 8.0 | 16.1 | 0.00 | 0.00 | 0.00 | 60 | 1006.5 |
| 20260504030053 | 14 | 200 | 11.3 | 16.1 | 0.00 | 0.00 | 0.00 | 60 | 1006.5 |
| 20260504025549 | 14 | 218 | 9.7 | 14.5 | 0.00 | 0.00 | 0.00 | 60 | 1006.4 |
| 20260504025047 | 14 | 190 | 6.4 | 14.5 | 0.00 | 0.00 | 0.00 | 60 | 1006.5 |
| 20260504024555 | 15 | 213 | 6.4 | 16.1 | 0.00 | 0.00 | 0.00 | 58 | 1006.6 |
| 20260504024049 | 15 | 180 | 8.0 | 16.1 | 0.00 | 0.00 | 0.00 | 58 | 1006.6 |
| 20260504023548 | 15 | 205 | 8.0 | 11.3 | 0.00 | 0.00 | 0.00 | 58 | 1006.5 |
| 20260504023053 | 15 | 193 | 6.4 | 11.3 | 0.00 | 0.00 | 0.00 | 57 | 1006.5 |
| 20260504022548 | 15 | 207 | 4.8 | 12.9 | 0.00 | 0.00 | 0.00 | 56 | 1006.6 |
| 20260504022048 | 15 | 192 | 4.8 | 16.1 | 0.00 | 0.00 | 0.00 | 55 | 1006.6 |
| 20260504021554 | 16 | 221 | 8.0 | 16.1 | 0.00 | 0.00 | 0.00 | 54 | 1006.6 |
| 20260504021045 | 16 | 178 | 9.7 | 17.7 | 0.00 | 0.00 | 0.00 | 53 | 1006.6 |
| 20260504020548 | 16 | 191 | 11.3 | 17.7 | 0.00 | 0.00 | 0.00 | 51 | 1006.6 |
| 20260504020109 | 16 | 186 | 9.7 | 17.7 | 0.00 | 0.00 | 0.00 | 51 | 1006.7 |
| 20260504015552 | 16 | 230 | 9.7 | 17.7 | 0.00 | 0.00 | 0.00 | 50 | 1006.7 |
| 20260504015049 | 16 | 211 | 8.0 | 16.1 | 0.00 | 0.00 | 0.00 | 50 | 1006.7 |
| 20260504014554 | 17 | 198 | 8.0 | 16.1 | 0.00 | 0.00 | 0.00 | 49 | 1006.8 |
| 20260504014048 | 17 | 199 | 8.0 | 14.5 | 0.00 | 0.00 | 0.00 | 49 | 1006.8 |
| 20260504013547 | 17 | 201 | 9.7 | 16.1 | 0.00 | 0.00 | 0.00 | 47 | 1006.9 |
| 20260504013051 | 18 | 198 | 9.7 | 16.1 | 0.00 | 0.00 | 0.00 | 46 | 1006.8 |
| 20260504012549 | 18 | 215 | 8.0 | 17.7 | 0.00 | 0.00 | 0.00 | 46 | 1007.0 |
| 20260504012047 | 18 | 226 | 9.7 | 22.5 | 0.00 | 0.00 | 0.00 | 45 | 1007.0 |
| 20260504011550 | 18 | 208 | 9.7 | 27.4 | 0.00 | 0.00 | 0.00 | 45 | 1007.1 |
| 20260504011049 | 18 | 205 | 16.1 | 27.4 | 0.00 | 0.00 | 0.00 | 44 | 1007.1 |
| 20260504010548 | 18 | 202 | 12.9 | 20.9 | 0.00 | 0.00 | 0.00 | 44 | 1007.2 |
| 20260504010056 | 19 | 198 | 8.0 | 19.3 | 0.00 | 0.00 | 0.00 | 43 | 1007.3 |
| 20260504005548 | 19 | 218 | 9.7 | 19.3 | 0.00 | 0.00 | 0.00 | 42 | 1007.3 |
| 20260504005052 | 20 | 212 | 9.7 | 22.5 | 0.00 | 0.00 | 0.00 | 42 | 1007.4 |
| 20260504004553 | 20 | 217 | 9.7 | 22.5 | 0.00 | 0.00 | 0.00 | 43 | 1007.4 |
| 20260504004045 | 20 | 225 | 11.3 | 25.7 | 0.00 | 0.00 | 0.00 | 43 | 1007.5 |
| 20260504003547 | 20 | 204 | 11.3 | 25.7 | 0.00 | 0.00 | 0.00 | 42 | 1007.5 |
| 20260504003053 | 20 | 227 | 12.9 | 24.1 | 0.00 | 0.00 | 0.00 | 42 | 1007.5 |
| 20260504002547 | 20 | 224 | 14.5 | 22.5 | 0.00 | 0.00 | 0.00 | 42 | 1007.6 |
| 20260504002047 | 20 | 238 | 12.9 | 25.7 | 0.00 | 0.00 | 0.00 | 42 | 1007.6 |
| 20260504001555 | 20 | 209 | 12.9 | 25.7 | 0.00 | 0.00 | 0.00 | 41 | 1007.7 |
| 20260504001051 | 20 | 221 | 16.1 | 25.7 | 0.00 | 0.00 | 0.00 | 41 | 1007.7 |
| 20260504000549 | 20 | 206 | 17.7 | 25.7 | 0.00 | 0.00 | 0.00 | 40 | 1007.8 |
| 20260504000059 | 20 | 246 | 19.3 | 25.7 | 0.00 | 0.00 | 0.00 | 40 | 1008.0 |
| 20260503235549 | 20 | 236 | 17.7 | 30.6 | 0.00 | 0.00 | 0.00 | 39 | 1008.0 |
| 20260503235051 | 20 | 236 | 16.1 | 30.6 | 0.00 | 0.00 | 0.00 | 38 | 1008.0 |
| 20260503234623 | 21 | 243 | 12.9 | 30.6 | 0.00 | 0.00 | 0.00 | 37 | 1008.1 |
| 20260503234053 | 21 | 256 | 17.7 | 30.6 | 0.00 | 0.00 | 0.00 | 36 | 1008.2 |
| 20260503233548 | 21 | 247 | 20.9 | 30.6 | 0.00 | 0.00 | 0.00 | 37 | 1008.2 |
| 20260503233053 | 21 | 242 | 20.9 | 29.0 | 0.00 | 0.00 | 0.00 | 37 | 1008.3 |
| 20260503232547 | 21 | 258 | 17.7 | 24.1 | 0.00 | 0.00 | 0.00 | 35 | 1008.3 |
| 20260503232047 | 21 | 245 | 14.5 | 25.7 | 0.00 | 0.00 | 0.00 | 36 | 1008.3 |
| 20260503231553 | 20 | 247 | 17.7 | 25.7 | 0.00 | 0.00 | 0.00 | 36 | 1008.5 |
| 20260503231048 | 21 | 261 | 16.1 | 25.7 | 0.00 | 0.00 | 0.00 | 35 | 1008.5 |
| 20260503230548 | 21 | 259 | 9.7 | 19.3 | 0.00 | 0.00 | 0.00 | 36 | 1008.7 |
| 20260503230052 | 21 | 223 | 9.7 | 24.1 | 0.00 | 0.00 | 0.00 | 37 | 1008.7 |
| 20260503225547 | 20 | 236 | 17.7 | 24.1 | 0.00 | 0.00 | 0.00 | 37 | 1008.8 |
| 20260503225048 | 20 | 227 | 14.5 | 29.0 | 0.00 | 0.00 | 0.00 | 38 | 1008.8 |
| 20260503224550 | 20 | 232 | 17.7 | 29.0 | 0.00 | 0.00 | 0.00 | 39 | 1008.9 |
| 20260503224048 | 19 | 238 | 20.9 | 33.8 | 0.00 | 0.00 | 0.00 | 43 | 1009.0 |
| 20260503223547 | 18 | 252 | 22.5 | 35.4 | 0.00 | 0.00 | 0.00 | 48 | 1009.2 |
| 20260503223057 | 17 | 262 | 24.1 | 35.4 | 0.00 | 0.00 | 0.00 | 50 | 1009.4 |
| 20260503222552 | 17 | 242 | 27.4 | 49.9 | 0.00 | 0.00 | 0.00 | 54 | 1009.5 |
| 20260503222048 | 17 | 261 | 30.6 | 57.9 | 0.00 | 0.00 | 0.00 | 53 | 1009.7 |
| 20260503221559 | 17 | 258 | 30.6 | 57.9 | 0.00 | 0.00 | 0.00 | 51 | 1009.8 |
| 20260503221048 | 17 | 264 | 41.8 | 61.2 | 0.00 | 0.00 | 0.00 | 52 | 1010.1 |
| 20260503220548 | 16 | 255 | 32.2 | 61.2 | 0.00 | 0.00 | 0.00 | 54 | 1010.2 |
| 20260503220052 | 17 | 259 | 37.0 | 61.2 | 0.00 | 0.00 | 0.00 | 48 | 1010.1 |
| 20260503215548 | 21 | 268 | 19.3 | 32.2 | 0.00 | 0.00 | 0.00 | 37 | 1010.2 |
| 20260503215048 | 21 | 261 | 14.5 | 20.9 | 0.00 | 0.00 | 0.00 | 33 | 1009.8 |
| 20260503214552 | 21 | 295 | 6.4 | 19.3 | 0.00 | 0.00 | 0.00 | 34 | 1009.7 |
| 20260503214053 | 21 | 259 | 11.3 | 19.3 | 0.00 | 0.00 | 0.00 | 32 | 1009.7 |
| 20260503213547 | 21 | 269 | 9.7 | 20.9 | 0.00 | 0.00 | 0.00 | 31 | 1009.9 |
| 20260503213053 | 22 | 230 | 6.4 | 24.1 | 0.00 | 0.00 | 0.00 | 32 | 1009.9 |
| 20260503212548 | 22 | 259 | 14.5 | 24.1 | 0.00 | 0.00 | 0.00 | 30 | 1010.0 |
| 20260503212048 | 22 | 254 | 6.4 | 17.7 | 0.00 | 0.00 | 0.00 | 31 | 1010.1 |
| 20260503211559 | 22 | 278 | 3.2 | 12.9 | 0.00 | 0.00 | 0.00 | 32 | 1010.1 |
| 20260503211049 | 22 | 221 | 6.4 | 16.1 | 0.00 | 0.00 | 0.00 | 32 | 1010.1 |
| 20260503210547 | 22 | 204 | 4.8 | 16.1 | 0.00 | 0.00 | 0.00 | 31 | 1010.1 |
| 20260503210051 | 22 | 240 | 4.8 | 12.9 | 0.00 | 0.00 | 0.00 | 31 | 1010.2 |
| 20260503205550 | 21 | 202 | 1.6 | 8.0 | 0.00 | 0.00 | 0.00 | 31 | 1010.3 |
| 20260503205050 | 21 | 109 | 1.6 | 8.0 | 0.00 | 0.00 | 0.00 | 31 | 1010.4 |
| 20260503204559 | 21 | 42 | 3.2 | 17.7 | 0.00 | 0.00 | 0.00 | 31 | 1010.5 |
| 20260503204047 | 21 | 15 | 4.8 | 19.3 | 0.00 | 0.00 | 0.00 | 31 | 1010.6 |
| 20260503203547 | 21 | 304 | 9.7 | 22.5 | 0.00 | 0.00 | 0.00 | 33 | 1010.7 |
| 20260503203058 | 21 | 345 | 11.3 | 22.5 | 0.00 | 0.00 | 0.00 | 31 | 1010.8 |
| 20260503202544 | 21 | 296 | 14.5 | 22.5 | 0.00 | 0.00 | 0.00 | 31 | 1010.8 |
| 20260503202049 | 21 | 289 | 9.7 | 16.1 | 0.00 | 0.00 | 0.00 | 31 | 1011.0 |
| 20260503201554 | 21 | 336 | 8.0 | 19.3 | 0.00 | 0.00 | 0.00 | 32 | 1011.0 |
| 20260503201047 | 21 | 45 | 9.7 | 19.3 | 0.00 | 0.00 | 0.00 | 33 | 1011.1 |
| 20260503200548 | 21 | 334 | 6.4 | 16.1 | 0.00 | 0.00 | 0.00 | 31 | 1011.2 |
| 20260503200057 | 21 | 332 | 8.0 | 16.1 | 0.00 | 0.00 | 0.00 | 31 | 1011.3 |
| 20260503195551 | 21 | 24 | 1.6 | 19.3 | 0.00 | 0.00 | 0.00 | 32 | 1011.3 |
| 20260503195049 | 21 | 232 | 8.0 | 19.3 | 0.00 | 0.00 | 0.00 | 34 | 1011.4 |
| 20260503194604 | 21 | 242 | 11.3 | 20.9 | 0.00 | 0.00 | 0.00 | 32 | 1011.4 |
| 20260503194047 | 21 | 273 | 6.4 | 20.9 | 0.00 | 0.00 | 0.00 | 34 | 1011.4 |
| 20260503193548 | 21 | 13 | 8.0 | 16.1 | 0.00 | 0.00 | 0.00 | 31 | 1011.5 |
| 20260503193059 | 21 | 335 | 8.0 | 22.5 | 0.00 | 0.00 | 0.00 | 32 | 1011.6 |
| 20260503192546 | 21 | 172 | 4.8 | 22.5 | 0.00 | 0.00 | 0.00 | 32 | 1011.6 |
| 20260503192047 | 21 | 310 | 12.9 | 25.7 | 0.00 | 0.00 | 0.00 | 32 | 1011.7 |
| 20260503191555 | 21 | 313 | 9.7 | 25.7 | 0.00 | 0.00 | 0.00 | 33 | 1011.8 |
| 20260503191044 | 21 | 306 | 14.5 | 24.1 | 0.00 | 0.00 | 0.00 | 32 | 1011.8 |
| 20260503190544 | 21 | 317 | 11.3 | 22.5 | 0.00 | 0.00 | 0.00 | 32 | 1011.9 |
| 20260503190052 | 20 | 16 | 4.8 | 17.7 | 0.00 | 0.00 | 0.00 | 33 | 1012.0 |
| 20260503185544 | 20 | 30 | 9.7 | 17.7 | 0.00 | 0.00 | 0.00 | 32 | 1012.1 |
| 20260503185045 | 20 | 28 | 4.8 | 12.9 | 0.00 | 0.00 | 0.00 | 35 | 1012.1 |
| 20260503184551 | 20 | 11 | 4.8 | 16.1 | 0.00 | 0.00 | 0.00 | 35 | 1012.2 |
| 20260503184044 | 20 | 195 | 4.8 | 16.1 | 0.00 | 0.00 | 0.00 | 36 | 1012.2 |
| 20260503183547 | 20 | 89 | 3.2 | 16.1 | 0.00 | 0.00 | 0.00 | 35 | 1012.3 |
| 20260503183052 | 20 | 101 | 8.0 | 20.9 | 0.00 | 0.00 | 0.00 | 36 | 1012.4 |
| 20260503182544 | 20 | 104 | 8.0 | 20.9 | 0.00 | 0.00 | 0.00 | 35 | 1012.5 |
| 20260503182043 | 20 | 51 | 3.2 | 14.5 | 0.00 | 0.00 | 0.00 | 37 | 1012.7 |
| 20260503181550 | 20 | 351 | 3.2 | 14.5 | 0.00 | 0.00 | 0.00 | 37 | 1012.9 |
| 20260503181044 | 20 | 297 | 8.0 | 14.5 | 0.00 | 0.00 | 0.00 | 36 | 1013.0 |
| 20260503180547 | 20 | 29 | 1.6 | 11.3 | 0.00 | 0.00 | 0.00 | 37 | 1013.1 |
| 20260503180058 | 19 | 80 | 4.8 | 11.3 | 0.00 | 0.00 | 0.00 | 36 | 1013.2 |
| 20260503175545 | 19 | 205 | 1.6 | 11.3 | 0.00 | 0.00 | 0.00 | 37 | 1013.4 |
| 20260503175048 | 19 | 122 | 1.6 | 11.3 | 0.00 | 0.00 | 0.00 | 37 | 1013.5 |
| 20260503174549 | 19 | 270 | 3.2 | 17.7 | 0.00 | 0.00 | 0.00 | 40 | 1013.6 |
| 20260503174044 | 19 | 218 | 6.4 | 17.7 | 0.00 | 0.00 | 0.00 | 39 | 1013.7 |
| 20260503173544 | 18 | 0 | 1.6 | 16.1 | 0.00 | 0.00 | 0.00 | 39 | 1013.7 |
| 20260503173050 | 18 | 267 | 8.0 | 16.1 | 0.00 | 0.00 | 0.00 | 38 | 1013.8 |
| 20260503172543 | 18 | 212 | 3.2 | 12.9 | 0.00 | 0.00 | 0.00 | 39 | 1013.9 |
| 20260503172043 | 18 | 38 | 3.2 | 14.5 | 0.00 | 0.00 | 0.00 | 39 | 1014.1 |
| 20260503171552 | 18 | 239 | 8.0 | 14.5 | 0.00 | 0.00 | 0.00 | 39 | 1014.2 |
| 20260503171044 | 18 | 159 | 6.4 | 11.3 | 0.00 | 0.00 | 0.00 | 39 | 1014.1 |
| 20260503170544 | 18 | 0 | 3.2 | 12.9 | 0.00 | 0.00 | 0.00 | 41 | 1014.3 |
| 20260503150548 | 14 | 188 | 3.2 | 11.3 | 0.00 | 0.00 | 0.00 | 54 | 1015.1 |
| 20260503140110 | 12 | 28 | 3.2 | 14.5 | 0.00 | 0.00 | 0.00 | 61 | 1015.6 |